Regional Weather Roundup
Issued by NWS

Home | Current Version | Previous Version | Text Only | Print | Product List | Glossary Off
Versions: 1 2 3 4 5 6 7 8 9 10 11 12 13 14 15 16 17 18 19 20 21 22 23 24 25 26 27 28 29 30 31 32 33 34 35 36 37 38 39 40 41 42 43 44 45 46 47 48 49 50

000
ASUS43 KDTX 020301
RWRMI
MICHIGAN HOURLY REGIONAL WEATHER ROUNDUP
NATIONAL WEATHER SERVICE DETROIT/PONTIAC MI
1100 PM EDT FRI AUG 01 2014

NOTE: "FAIR" INDICATES FEW OR NO CLOUDS BELOW 12,000 FEET WITH NO
SIGNIFICANT WEATHER AND/OR OBSTRUCTION TO VISIBILITY.

MIZ047>049-052>055-059>063-066>070-074>076-081>083-020400-
SOUTHEAST LOWER MICHIGAN

CITY           SKY/WX    TMP DP  RH WIND       PRES   REMARKS
ADRIAN         PTCLDY    67  62  84 CALM      30.12R
ALMA           PTCLDY    64  58  82 CALM      30.11R
ANN ARBOR      MOCLDY    66  58  75 CALM      30.10S
BAD AXE        CLOUDY    65  64  94 S3        30.12S
CARO           CLOUDY    67  64  88 CALM      30.10S
DETROIT CITY   PTCLDY    74  63  68 S6        30.09F
DETROIT        MOCLDY    71  62  73 CALM      30.11R
FLINT          MOCLDY    65  58  78 CALM      30.11R
GROSSE ILE     PTCLDY    68  64  88 CALM      30.09S
HILLSDALE      MOCLDY    63  62  99 CALM      30.12S
HOWELL         MOCLDY    64  58  81 N7        30.11R

CITY           SKY/WX    TMP DP  RH WIND       PRES   REMARKS
JACKSON        PTCLDY    65  58  78 CALM      30.11F
LAMBERTVILLE   PTCLDY    66  61  82 CALM      30.11S HAZE
LANSING        PTCLDY    58  55  90 E5        30.12R
LAPEER         FAIR      64  63  94 CALM      30.11F
MASON          PTCLDY    63  59  85 N8        30.12R
MONROE         MOCLDY    64  63  94 CALM      30.09S FOG
MT. CLEMENS    MOCLDY    67  62  85 NE2       30.09F
PONTIAC        CLOUDY    69  61  75 NW5       30.11R
PORT HOPE        N/A     68  64  87 E9        30.10S
PORT HURON     MOCLDY    63  61  94 CALM      30.11S
TRI CITIES     CLOUDY    68  61  78 CALM      30.10S
TROY           PTCLDY    72  62  69 CALM      30.10F
SAGINAW HB     CLOUDY    68  61  77 CALM      30.09S
$$
MIZ043>046-050>051-056>058-064>065-071>073-077>080-020400-
SOUTHWEST LOWER MICHIGAN

CITY           SKY/WX    TMP DP  RH WIND       PRES   REMARKS
BATTLE CREEK   PTCLDY    65  58  78 CALM      30.11S
BENTON HARBOR  CLEAR     61  60  97 CALM      30.11R FOG
BIG RAPIDS     MOCLDY    63  63 100 CALM      30.11S
COLDWATER      MOCLDY    66  64  91 CALM      30.11S
FREMONT        FAIR      64  59  86 CALM      30.10S
HOLLAND        PTCLDY    63  59  87 CALM      30.12R
GRAND RAPIDS   PTCLDY    65  58  78 CALM      30.11R
IONIA          FAIR      61  58  91 W5        30.10R
KALAMAZOO      PTCLDY    63  59  87 CALM      30.11S
LUDINGTON      PTCLDY    64  59  82 CALM      30.10S
MARSHALL       PTCLDY    61  57  85 CALM      30.10S
MOUNT PLEASANT PTCLDY    62  57  84 CALM      30.09F
MUSKEGON       MOCLDY    65  59  81 S3        30.11R
SOUTH HAVEN    CLEAR     62  62 100 CALM      30.10S FOG
$$
MIZ016>042-020400-
NORTHERN LOWER MICHIGAN

CITY           SKY/WX    TMP DP  RH WIND       PRES   REMARKS
ALPENA         PTCLDY    60  57  89 CALM      30.13S
BEAVER ISLAND  PTCLDY    64  61  91 E7        30.12S
BELLAIRE       MOCLDY    63  59  88 N5        30.09S
CADILLAC       MOCLDY    60  58  92 CALM      30.12S
CHARLEVOIX     MOCLDY    69  55  61 E3        30.14S
FRANKFORT      MOCLDY    61  56  85 CALM      30.11S
GAYLORD        MOCLDY    67  57  70 CALM      30.12S
GRAYLING       MOCLDY    61  60  96 E3        30.13R
HARBOR SPRINGS MOCLDY    67  52  58 NE7       30.11S
HOUGHTON LAKE  PTCLDY    61  59  93 S3        30.13R
MANISTEE       PTCLDY    63  57  82 E5        30.11S
OSCODA         PTCLDY    62  60  93 CALM      30.11S
PELLSTON       MOCLDY    60  54  80 CALM      30.12S
ROGERS CITY    PTCLDY    64  57  78 S3        30.13S
TRAVERSE CITY  MOCLDY    64  55  72 CALM      30.09R
$$
MIZ007>008-015-020400-
EASTERN UPPER MICHIGAN

CITY           SKY/WX    TMP DP  RH WIND       PRES   REMARKS
KINROSS        CLEAR     59  52  77 CALM      30.12F
MACKINAC ISLAN MOCLDY    61  52  72 SE8       30.13R
NEWBERRY       CLEAR     57  52  84 N3        30.13S
S. S. MARIE    CLEAR     57  50  77 NW3       30.12S
$$
MIZ004>006-011>014-085-020400-
CENTRAL UPPER MICHIGAN

CITY           SKY/WX    TMP DP  RH WIND       PRES   REMARKS
MANISTIQUE     MOCLDY    61  53  75 CALM      30.11S
ESCANABA       PTCLDY    61  54  77 CALM      30.11S
MENOMINEE      PTCLDY    70  61  73 S5        30.08R
SAWYER-GWINN   MOCLDY    56  52  84 N5        30.14R
$$
MIZ001>003-009>011-084-020400-
WESTERN UPPER MICHIGAN

CITY           SKY/WX    TMP DP  RH WIND       PRES   REMARKS
IRON MOUNTAIN  PTCLDY    65  54  67 NE6       30.11R
HOUGHTON       CLEAR     56  48  74 E6        30.12R
COPPER HARBOR    N/A     58  50  75 SW9       30.10R
$$

ABBREVIATIONS USED IN REMARKS
   TC - TEMPERATURE IN CELSIUS
  WCI - WIND CHILL INDEX
   HX - HEAT INDEX
  VSB - VISIBILITY




USA.gov is the U.S. government's official web portal to all federal, state and local government web resources and services.